Tampa, FL

7:46 AM EDT on March 23, 2017 (GMT -0400)
Tampa International

Weather History for KTPA - September, 2012

Change the Weather History Date:

Tuesday, September 4, 2012

  Actual Average Record
Temperature  
Mean Temperature 83 °F 83 °F  
Max Temperature 90 °F 90 °F 96 °F (1961)
Min Temperature 76 °F 76 °F 68 °F (1906)
Degree Days  
Heating Degree Days 0 0  
Month to date heating degree days 0 0  
Since 1 July heating degree days 0 0  
Cooling Degree Days 18 18  
Month to date cooling degree days 75 72  
Year to date cooling degree days 2995 2587  
Growing Degree Days 32 (Base 50)    
Moisture  
Dew Point 71 °F    
Average Humidity 68    
Maximum Humidity 88    
Minimum Humidity 47    
Precipitation  
Precipitation 0.00 in 0.25 in 6.30 in (1935)
Month to date precipitation 0.00 1.02  
Year to date precipitation 44.96 34.74  
Sea Level Pressure  
Sea Level Pressure 30.00 in    
Wind  
Wind Speed 4 mph (West)    
Max Wind Speed 15 mph    
Max Gust Speed 21 mph    
Visibility 10 miles    
Events      
T = Trace of Precipitation, MM = Missing Value Source: NWS Daily Summary

Daily Weather History Graph

Daily Weather History Graph

Search for Another Location

Airport or City:

Trip Planner

Search our weather history database for the weather conditions in past years. The results will help you decide how hot, cold, wet, or windy it might be!

Date:

Astronomy

Sep. 04, 2012 Rise Set
Actual Time 7:10 AM EDT 7:47 PM EDT
Civil Twilight 6:46 AM EDT 8:10 PM EDT
Nautical Twilight 6:18 AM EDT 8:38 PM EDT
Astronomical Twilight 5:50 AM EDT 9:06 PM EDT
Moon 10:08 PM EDT (9/4) 10:48 AM EDT (9/4)
Length of Visible Light 13h 24m
Length of Day
12h 36m
Waning Gibbous, 84% of the Moon is Illuminated
Sep 4
Waning Gibbous
Sep 8
Last Quarter
Sep 15
New
Sep 22
First Quarter
Sep 29
Full

Hourly Weather History & Observations

Time (EDT) Temp. Heat Index Dew Point Humidity Pressure Visibility Wind Dir Wind Speed Gust Speed Precip Events Conditions
12:53 AM 81.0 °F 85.8 °F 73.0 °F 77% 30.02 in 10.0 mi NE 3.5 mph - N/A   Partly Cloudy
1:53 AM 80.1 °F 84.2 °F 73.0 °F 79% 30.01 in 10.0 mi Calm Calm - N/A   Clear
2:53 AM 79.0 °F - 73.0 °F 82% 30.01 in 10.0 mi Calm Calm - N/A   Clear
3:53 AM 78.1 °F - 73.0 °F 84% 30.01 in 10.0 mi Calm Calm - N/A   Clear
4:53 AM 77.0 °F - 73.0 °F 88% 30.01 in 9.0 mi Calm Calm - N/A   Clear
5:53 AM 77.0 °F - 73.0 °F 88% 30.01 in 9.0 mi Calm Calm - N/A   Clear
6:53 AM 77.0 °F - 73.0 °F 88% 30.02 in 9.0 mi Calm Calm - N/A   Scattered Clouds
7:53 AM 77.0 °F - 73.0 °F 88% 30.03 in 8.0 mi Calm Calm - N/A   Scattered Clouds
8:53 AM 80.1 °F 84.2 °F 73.0 °F 79% 30.03 in 8.0 mi Variable 3.5 mph - N/A   Scattered Clouds
9:53 AM 82.9 °F 88.8 °F 73.0 °F 72% 30.04 in 10.0 mi Calm Calm - N/A   Scattered Clouds
10:53 AM 86.0 °F 90.7 °F 70.0 °F 59% 30.04 in 10.0 mi Variable 3.5 mph - N/A   Scattered Clouds
11:53 AM 87.1 °F 92.0 °F 70.0 °F 57% 30.03 in 10.0 mi SW 5.8 mph - N/A   Scattered Clouds
12:53 PM 87.1 °F 92.8 °F 71.1 °F 59% 30.02 in 10.0 mi SW 5.8 mph - N/A   Scattered Clouds
1:53 PM 89.1 °F 92.1 °F 66.9 °F 48% 30.01 in 10.0 mi SW 8.1 mph - N/A   Scattered Clouds
2:53 PM 89.1 °F 92.1 °F 66.9 °F 48% 29.99 in 10.0 mi West 5.8 mph - N/A   Scattered Clouds
3:53 PM 86.0 °F 90.7 °F 70.0 °F 59% 29.97 in 10.0 mi West 12.7 mph - N/A   Scattered Clouds
4:53 PM 88.0 °F 92.9 °F 70.0 °F 55% 29.96 in 10.0 mi WNW 9.2 mph - N/A   Scattered Clouds
5:53 PM 87.8 °F 93.8 °F 71.6 °F 58% 29.96 in 10.0 mi WNW 10.4 mph - N/A   Scattered Clouds
6:53 PM 84.9 °F 90.1 °F 71.1 °F 63% 29.96 in 10.0 mi WNW 8.1 mph - N/A   Mostly Cloudy
7:53 PM 84.0 °F 88.4 °F 70.0 °F 63% 29.97 in 10.0 mi West 8.1 mph - N/A   Mostly Cloudy
8:53 PM 82.0 °F 85.9 °F 70.0 °F 67% 29.99 in 10.0 mi Calm Calm - N/A   Mostly Cloudy
9:53 PM 82.0 °F 86.3 °F 71.1 °F 69% 29.99 in 10.0 mi NW 4.6 mph - N/A   Mostly Cloudy
10:53 PM 80.6 °F 83.9 °F 69.8 °F 70% 30.00 in 10.0 mi NW 3.5 mph - N/A   Mostly Cloudy
11:53 PM 82.0 °F 85.5 °F 69.1 °F 65% 30.00 in 10.0 mi Calm Calm - N/A   Scattered Clouds